"Sample Date","Sample Time","Sample Value","Units","Flow Rate","Number Channels","Micron Size 0","Counts/Channel 0","Micron Size 1","Counts/Channel 1","Micron Size 2","Counts/Channel 2","Micron Size 3","Counts/Channel 3","Micron Size 4","Counts/Channel 4","Micron Size 5","Counts/Channel 5","Micron Size 6","Counts/Channel 6","Micron Size 7","Counts/Channel 7","Micron Size 8","Counts/Channel 8","Micron Size 9","Counts/Channel 9","Micron Size 10","Counts/Channel 10","Micron Size 11","Counts/Channel 11","Micron Size 12","Counts/Channel 12","Micron Size 13","Counts/Channel 13","Micron Size 14","Counts/Channel 14","Micron Size 15","Counts/Channel 15","Micron Size 16","Counts/Channel 16","Micron Size 17","Counts/Channel 17","Micron Size 18","Counts/Channel 18","Micron Size 19","Counts/Channel 19","Micron Size 20","Counts/Channel 20","Micron Size 21","Counts/Channel 21","Micron Size 22","Counts/Channel 22","Micron Size 23","Counts/Channel 23","Micron Size 24","Counts/Channel 24","Micron Size 25","Counts/Channel 25","Micron Size 26","Counts/Channel 26","Micron Size 27","Counts/Channel 27","Micron Size 28","Counts/Channel 28","Micron Size 29","Counts/Channel 29","Micron Size 30","Counts/Channel 30","Micron Size 31","Counts/Channel 31"
"05/10/08","01:00:01",2579.000,"cc",28360.342,6,0.100,2023.000,0.200,468.000,0.300,66.000,0.500,22.000,1.000,0,5.000,0
"05/10/08","01:00:07",2430.000,"cc",28369.639,6,0.100,1894.000,0.200,454.000,0.300,64.000,0.500,17.000,1.000,1.000,5.000,0
"05/10/08","01:00:13",2346.000,"cc",28317.035,6,0.100,1807.000,0.200,442.000,0.300,71.000,0.500,22.000,1.000,4.000,5.000,0
"05/10/08","01:00:19",2321.000,"cc",28298.688,6,0.100,1820.000,0.200,414.000,0.300,70.000,0.500,14.000,1.000,3.000,5.000,0
"05/10/08","01:00:25",2241.000,"cc",28236.039,6,0.100,1751.000,0.200,416.000,0.300,51.000,0.500,20.000,1.000,3.000,5.000,0
"05/10/08","01:00:31",2321.000,"cc",28306.732,6,0.100,1773.000,0.200,458.000,0.300,69.000,0.500,16.000,1.000,5.000,5.000,0
"05/10/08","01:00:37",2243.000,"cc",28329.432,6,0.100,1731.000,0.200,430.000,0.300,66.000,0.500,14.000,1.000,2.000,5.000,0
"05/10/08","01:00:43",2289.000,"cc",28311.479,6,0.100,1776.000,0.200,444.000,0.300,50.000,0.500,17.000,1.000,2.000,5.000,0
"05/10/08","01:00:49",2301.000,"cc",28345.844,6,0.100,1762.000,0.200,458.000,0.300,63.000,0.500,17.000,1.000,1.000,5.000,0
"05/10/08","01:00:55",2273.000,"cc",28307.436,6,0.100,1751.000,0.200,435.000,0.300,61.000,0.500,23.000,1.000,3.000,5.000,0
"05/10/08","01:01:01",2465.000,"cc",28314.039,6,0.100,1917.000,0.200,472.000,0.300,61.000,0.500,13.000,1.000,2.000,5.000,0
"05/10/08","01:01:07",2282.000,"cc",28355.154,6,0.100,1755.000,0.200,435.000,0.300,71.000,0.500,20.000,1.000,1.000,5.000,0
"05/10/08","01:01:13",2229.000,"cc",28354.420,6,0.100,1711.000,0.200,434.000,0.300,67.000,0.500,17.000,1.000,0,5.000,0
"05/10/08","01:01:19",2338.000,"cc",28354.420,6,0.100,1820.000,0.200,445.000,0.300,61.000,0.500,10.000,1.000,2.000,5.000,0
"05/10/08","01:01:25",2339.000,"cc",28342.475,6,0.100,1762.000,0.200,491.000,0.300,60.000,0.500,25.000,1.000,1.000,5.000,0
"05/10/08","01:01:31",2580.000,"cc",28313.471,6,0.100,1999.000,0.200,490.000,0.300,67.000,0.500,23.000,1.000,1.000,5.000,0
"05/10/08","01:01:37",2482.000,"cc",28228.502,6,0.100,1878.000,0.200,500.000,0.300,81.000,0.500,21.000,1.000,2.000,5.000,0
"05/10/08","01:01:43",2407.000,"cc",28320.459,6,0.100,1869.000,0.200,455.000,0.300,57.000,0.500,22.000,1.000,4.000,5.000,0
"05/10/08","01:01:49",2345.000,"cc",28349.291,6,0.100,1814.000,0.200,469.000,0.300,49.000,0.500,13.000,1.000,0,5.000,0
"05/10/08","01:01:55",2439.000,"cc",28322.018,6,0.100,1831.000,0.200,503.000,0.300,82.000,0.500,20.000,1.000,3.000,5.000,0
"05/10/08","01:02:01",2674.000,"cc",28347.061,6,0.100,2017.000,0.200,545.000,0.300,86.000,0.500,23.000,1.000,3.000,5.000,0
"05/10/08","01:02:06",2339.000,"cc",28342.523,6,0.100,1793.000,0.200,449.000,0.300,73.000,0.500,22.000,1.000,2.000,5.000,0
"05/10/08","01:02:12",2646.000,"cc",28397.227,6,0.100,2045.000,0.200,501.000,0.300,76.000,0.500,22.000,1.000,2.000,5.000,0
"05/10/08","01:02:18",2593.000,"cc",28295.957,6,0.100,1985.000,0.200,517.000,0.300,64.000,0.500,27.000,1.000,0,5.000,0
"05/10/08","01:02:24",2246.000,"cc",28279.809,6,0.100,1738.000,0.200,427.000,0.300,66.000,0.500,15.000,1.000,0,5.000,0
"05/10/08","01:02:30",2247.000,"cc",28291.455,6,0.100,1643.000,0.200,503.000,0.300,83.000,0.500,17.000,1.000,1.000,5.000,0
"05/10/08","01:02:36",2316.000,"cc",28346.065,6,0.100,1758.000,0.200,456.000,0.300,84.000,0.500,14.000,1.000,4.000,5.000,0
"05/10/08","01:02:42",2383.000,"cc",28303.162,6,0.100,1779.000,0.200,493.000,0.300,93.000,0.500,16.000,1.000,2.000,5.000,0
"05/10/08","01:02:48",2317.000,"cc",28352.705,6,0.100,1736.000,0.200,508.000,0.300,57.000,0.500,14.000,1.000,2.000,5.000,0
"05/10/08","01:02:54",2283.000,"cc",28262.205,6,0.100,1730.000,0.200,476.000,0.300,62.000,0.500,15.000,1.000,0,5.000,0
"05/10/08","01:03:00",2632.000,"cc",28267.918,6,0.100,2066.000,0.200,478.000,0.300,70.000,0.500,15.000,1.000,3.000,5.000,0
"05/10/08","01:03:06",3460.000,"cc",28362.984,6,0.100,2742.000,0.200,614.000,0.300,85.000,0.500,18.000,1.000,1.000,5.000,0
"05/10/08","01:03:12",3510.000,"cc",28373.076,6,0.100,2782.000,0.200,616.000,0.300,88.000,0.500,23.000,1.000,1.000,5.000,0
"05/10/08","01:03:18",2718.000,"cc",28271.107,6,0.100,2117.000,0.200,513.000,0.300,63.000,0.500,21.000,1.000,4.000,5.000,0
"05/10/08","01:03:24",2534.000,"cc",28310.531,6,0.100,1972.000,0.200,476.000,0.300,72.000,0.500,10.000,1.000,4.000,5.000,0
"05/10/08","01:03:30",2355.000,"cc",28275.645,6,0.100,1746.000,0.200,528.000,0.300,60.000,0.500,19.000,1.000,2.000,5.000,0
"05/10/08","01:03:36",2258.000,"cc",28316.043,6,0.100,1696.000,0.200,497.000,0.300,49.000,0.500,14.000,1.000,2.000,5.000,0
"05/10/08","01:03:42",2308.000,"cc",28367.178,6,0.100,1741.000,0.200,482.000,0.300,66.000,0.500,16.000,1.000,3.000,5.000,0
"05/10/08","01:03:48",2324.000,"cc",28317.904,6,0.100,1769.000,0.200,479.000,0.300,67.000,0.500,8.000,1.000,1.000,5.000,0
"05/10/08","01:03:54",2553.000,"cc",28349.238,6,0.100,1960.000,0.200,488.000,0.300,84.000,0.500,18.000,1.000,3.000,5.000,0
"05/10/08","01:04:00",2544.000,"cc",28365.619,6,0.100,1959.000,0.200,499.000,0.300,64.000,0.500,22.000,1.000,0,5.000,0
"05/10/08","01:04:06",2337.000,"cc",28280.330,6,0.100,1775.000,0.200,464.000,0.300,79.000,0.500,19.000,1.000,0,5.000,0
"05/10/08","01:04:12",2309.000,"cc",28280.889,6,0.100,1778.000,0.200,450.000,0.300,64.000,0.500,16.000,1.000,1.000,5.000,0
"05/10/08","01:04:18",2341.000,"cc",28393.881,6,0.100,1790.000,0.200,461.000,0.300,68.000,0.500,18.000,1.000,4.000,5.000,0
"05/10/08","01:04:24",2201.000,"cc",28294.449,6,0.100,1643.000,0.200,485.000,0.300,60.000,0.500,10.000,1.000,3.000,5.000,0
"05/10/08","01:04:30",2369.000,"cc",28304.551,6,0.100,1794.000,0.200,480.000,0.300,74.000,0.500,20.000,1.000,1.000,5.000,0
"05/10/08","01:04:36",3103.000,"cc",28297.943,6,0.100,2361.000,0.200,624.000,0.300,93.000,0.500,22.000,1.000,3.000,5.000,0
"05/10/08","01:04:42",2405.000,"cc",28328.787,6,0.100,1830.000,0.200,495.000,0.300,69.000,0.500,9.000,1.000,2.000,5.000,0
"05/10/08","01:04:48",2318.000,"cc",28348.650,6,0.100,1795.000,0.200,443.000,0.300,60.000,0.500,17.000,1.000,3.000,5.000,0
"05/10/08","01:04:54",2251.000,"cc",28293.744,6,0.100,1702.000,0.200,462.000,0.300,69.000,0.500,14.000,1.000,4.000,5.000,0
"05/10/08","01:05:00",2391.000,"cc",28330.635,6,0.100,1833.000,0.200,492.000,0.300,51.000,0.500,14.000,1.000,1.000,5.000,0
"05/10/08","01:05:06",2298.000,"cc",28363.574,6,0.100,1738.000,0.200,471.000,0.300,71.000,0.500,17.000,1.000,1.000,5.000,0
"05/10/08","01:05:12",2401.000,"cc",28265.830,6,0.100,1803.000,0.200,489.000,0.300,86.000,0.500,22.000,1.000,1.000,5.000,0
"05/10/08","01:05:18",2679.000,"cc",28323.867,6,0.100,2087.000,0.200,507.000,0.300,70.000,0.500,12.000,1.000,3.000,5.000,0
"05/10/08","01:05:24",2435.000,"cc",28329.336,6,0.100,1850.000,0.200,496.000,0.300,73.000,0.500,14.000,1.000,2.000,5.000,0
"05/10/08","01:05:30",3432.000,"cc",28291.373,6,0.100,2649.000,0.200,679.000,0.300,89.000,0.500,14.000,1.000,1.000,5.000,0
"05/10/08","01:05:36",3800.000,"cc",28257.996,6,0.100,2988.000,0.200,710.000,0.300,81.000,0.500,21.000,1.000,0,5.000,0
"05/10/08","01:05:42",4961.000,"cc",28331.152,6,0.100,4002.000,0.200,830.000,0.300,101.000,0.500,27.000,1.000,1.000,5.000,0
"05/10/08","01:05:48",3313.000,"cc",28375.846,6,0.100,2602.000,0.200,607.000,0.300,91.000,0.500,11.000,1.000,2.000,5.000,0
"05/10/08","01:05:54",2742.000,"cc",28328.190,6,0.100,2123.000,0.200,537.000,0.300,68.000,0.500,12.000,1.000,2.000,5.000,0
"05/10/08","01:06:00",2800.000,"cc",28314.762,6,0.100,2178.000,0.200,532.000,0.300,77.000,0.500,11.000,1.000,2.000,5.000,0
"05/10/08","01:06:06",2605.000,"cc",28323.709,6,0.100,1982.000,0.200,548.000,0.300,66.000,0.500,8.000,1.000,1.000,5.000,0
"05/10/08","01:06:12",2693.000,"cc",28303.842,6,0.100,2066.000,0.200,531.000,0.300,80.000,0.500,15.000,1.000,1.000,5.000,0
"05/10/08","01:06:18",3154.000,"cc",28326.059,6,0.100,2413.000,0.200,608.000,0.300,103.000,0.500,29.000,1.000,1.000,5.000,0
"05/10/08","01:06:24",3443.000,"cc",28294.334,6,0.100,2723.000,0.200,603.000,0.300,93.000,0.500,23.000,1.000,1.000,5.000,0
"05/10/08","01:06:30",3188.000,"cc",28268.012,6,0.100,2478.000,0.200,616.000,0.300,77.000,0.500,17.000,1.000,0,5.000,0
"05/10/08","01:06:36",2375.000,"cc",28289.072,6,0.100,1810.000,0.200,497.000,0.300,56.000,0.500,11.000,1.000,1.000,5.000,0
"05/10/08","01:06:42",2415.000,"cc",28346.654,6,0.100,1807.000,0.200,525.000,0.300,65.000,0.500,17.000,1.000,1.000,5.000,0
"05/10/08","01:06:48",2203.000,"cc",28391.469,6,0.100,1656.000,0.200,466.000,0.300,60.000,0.500,19.000,1.000,2.000,5.000,0
"05/10/08","01:06:54",2289.000,"cc",28312.809,6,0.100,1757.000,0.200,458.000,0.300,63.000,0.500,10.000,1.000,1.000,5.000,0
"05/10/08","01:07:00",2372.000,"cc",28258.758,6,0.100,1782.000,0.200,495.000,0.300,79.000,0.500,14.000,1.000,2.000,5.000,0
"05/10/08","01:07:06",2340.000,"cc",28266.527,6,0.100,1778.000,0.200,469.000,0.300,78.000,0.500,13.000,1.000,2.000,5.000,0
"05/10/08","01:07:12",2203.000,"cc",28328.065,6,0.100,1668.000,0.200,461.000,0.300,51.000,0.500,20.000,1.000,3.000,5.000,0
"05/10/08","01:07:18",2422.000,"cc",28314.111,6,0.100,1856.000,0.200,494.000,0.300,63.000,0.500,8.000,1.000,1.000,5.000,0
"05/10/08","01:07:24",2302.000,"cc",28354.996,6,0.100,1725.000,0.200,492.000,0.300,65.000,0.500,18.000,1.000,2.000,5.000,0
"05/10/08","01:07:30",2315.000,"cc",28367.897,6,0.100,1769.000,0.200,470.000,0.300,62.000,0.500,13.000,1.000,1.000,5.000,0
"05/10/08","01:07:36",2497.000,"cc",28351.459,6,0.100,1912.000,0.200,503.000,0.300,68.000,0.500,12.000,1.000,2.000,5.000,0
"05/10/08","01:07:42",2242.000,"cc",28305.104,6,0.100,1676.000,0.200,495.000,0.300,59.000,0.500,11.000,1.000,1.000,5.000,0
"05/10/08","01:07:48",2544.000,"cc",28267.918,6,0.100,1926.000,0.200,524.000,0.300,84.000,0.500,8.000,1.000,2.000,5.000,0
"05/10/08","01:07:54",2405.000,"cc",28289.082,6,0.100,1879.000,0.200,442.000,0.300,72.000,0.500,10.000,1.000,2.000,5.000,0
"05/10/08","01:08:00",2323.000,"cc",28366.332,6,0.100,1718.000,0.200,527.000,0.300,62.000,0.500,16.000,1.000,0,5.000,0
"05/10/08","01:08:06",2313.000,"cc",28314.365,6,0.100,1750.000,0.200,487.000,0.300,58.000,0.500,17.000,1.000,1.000,5.000,0
"05/10/08","01:08:12",2276.000,"cc",28281.641,6,0.100,1725.000,0.200,478.000,0.300,65.000,0.500,7.000,1.000,1.000,5.000,0
"05/10/08","01:08:18",2337.000,"cc",28352.231,6,0.100,1738.000,0.200,516.000,0.300,62.000,0.500,21.000,1.000,0,5.000,0
"05/10/08","01:08:24",2231.000,"cc",28317.457,6,0.100,1666.000,0.200,491.000,0.300,59.000,0.500,15.000,1.000,0,5.000,0
"05/10/08","01:08:30",2328.000,"cc",28263.660,6,0.100,1751.000,0.200,494.000,0.300,64.000,0.500,18.000,1.000,1.000,5.000,0
"05/10/08","01:08:36",2322.000,"cc",28337.760,6,0.100,1769.000,0.200,480.000,0.300,54.000,0.500,14.000,1.000,5.000,5.000,0
"05/10/08","01:08:42",2313.000,"cc",28334.000,6,0.100,1732.000,0.200,493.000,0.300,74.000,0.500,12.000,1.000,2.000,5.000,0
"05/10/08","01:08:48",2365.000,"cc",28382.859,6,0.100,1797.000,0.200,495.000,0.300,52.000,0.500,20.000,1.000,1.000,5.000,0
"05/10/08","01:08:54",2422.000,"cc",28274.541,6,0.100,1886.000,0.200,465.000,0.300,55.000,0.500,15.000,1.000,1.000,5.000,0
"05/10/08","01:09:00",2507.000,"cc",28233.816,6,0.100,1888.000,0.200,521.000,0.300,73.000,0.500,23.000,1.000,2.000,5.000,0
"05/10/08","01:09:06",2274.000,"cc",28320.289,6,0.100,1721.000,0.200,472.000,0.300,69.000,0.500,11.000,1.000,1.000,5.000,0
"05/10/08","01:09:12",2385.000,"cc",28352.213,6,0.100,1804.000,0.200,508.000,0.300,67.000,0.500,6.000,1.000,0,5.000,0
"05/10/08","01:09:18",2287.000,"cc",28378.594,6,0.100,1763.000,0.200,458.000,0.300,58.000,0.500,5.000,1.000,3.000,5.000,0
"05/10/08","01:09:24",2651.000,"cc",28310.424,6,0.100,2060.000,0.200,511.000,0.300,70.000,0.500,8.000,1.000,2.000,5.000,0
"05/10/08","01:09:30",2675.000,"cc",28339.320,6,0.100,2044.000,0.200,540.000,0.300,70.000,0.500,19.000,1.000,2.000,5.000,0
"05/10/08","01:09:36",2773.000,"cc",28316.043,6,0.100,2069.000,0.200,603.000,0.300,87.000,0.500,14.000,1.000,0,5.000,0
"05/10/08","01:09:42",2628.000,"cc",28322.670,6,0.100,1975.000,0.200,558.000,0.300,74.000,0.500,20.000,1.000,1.000,5.000,0
"05/10/08","01:09:48",2693.000,"cc",28331.025,6,0.100,2082.000,0.200,525.000,0.300,64.000,0.500,21.000,1.000,1.000,5.000,0
"05/10/08","01:09:54",3589.000,"cc",28237.818,6,0.100,2805.000,0.200,687.000,0.300,80.000,0.500,17.000,1.000,0,5.000,0
"05/10/08","01:10:00",3102.000,"cc",28307.967,6,0.100,2380.000,0.200,626.000,0.300,78.000,0.500,18.000,1.000,0,5.000,0
"05/10/08","01:10:06",4431.000,"cc",28336.065,6,0.100,3549.000,0.200,761.000,0.300,101.000,0.500,17.000,1.000,3.000,5.000,0
"05/10/08","01:10:12",3571.000,"cc",28314.613,6,0.100,2840.000,0.200,638.000,0.300,78.000,0.500,14.000,1.000,1.000,5.000,0
"05/10/08","01:10:18",3614.000,"cc",28261.375,6,0.100,2820.000,0.200,671.000,0.300,102.000,0.500,19.000,1.000,2.000,5.000,0
"05/10/08","01:10:24",3870.000,"cc",28381.588,6,0.100,3052.000,0.200,715.000,0.300,89.000,0.500,13.000,1.000,1.000,5.000,0
"05/10/08","01:10:30",4909.000,"cc",28332.566,6,0.100,3922.000,0.200,864.000,0.300,102.000,0.500,18.000,1.000,3.000,5.000,0
"05/10/08","01:10:36",3882.000,"cc",28362.910,6,0.100,3078.000,0.200,703.000,0.300,84.000,0.500,16.000,1.000,1.000,5.000,0
"05/10/08","01:10:42",4976.000,"cc",28225.143,6,0.100,3994.000,0.200,874.000,0.300,88.000,0.500,18.000,1.000,2.000,5.000,0
"05/10/08","01:10:48",4078.000,"cc",28373.065,6,0.100,3224.000,0.200,750.000,0.300,82.000,0.500,19.000,1.000,3.000,5.000,0
"05/10/08","01:10:54",4125.000,"cc",28309.412,6,0.100,3251.000,0.200,766.000,0.300,96.000,0.500,11.000,1.000,1.000,5.000,0
"05/10/08","01:11:00",4373.000,"cc",28313.012,6,0.100,3499.000,0.200,781.000,0.300,83.000,0.500,8.000,1.000,2.000,5.000,0
"05/10/08","01:11:06",6653.000,"cc",28335.678,6,0.100,5422.000,0.200,1093.000,0.300,121.000,0.500,15.000,1.000,2.000,5.000,0
"05/10/08","01:11:12",6320.000,"cc",28264.287,6,0.100,5164.000,0.200,1031.000,0.300,110.000,0.500,12.000,1.000,3.000,5.000,0
"05/10/08","01:11:18",5320.000,"cc",28337.885,6,0.100,4260.000,0.200,923.000,0.300,116.000,0.500,21.000,1.000,0,5.000,0
"05/10/08","01:11:24",5528.000,"cc",28255.068,6,0.100,4487.000,0.200,930.000,0.300,96.000,0.500,14.000,1.000,1.000,5.000,0
"05/10/08","01:11:30",3551.000,"cc",28324.672,6,0.100,2813.000,0.200,643.000,0.300,76.000,0.500,19.000,1.000,0,5.000,0
"05/10/08","01:11:36",2802.000,"cc",28312.734,6,0.100,2177.000,0.200,532.000,0.300,76.000,0.500,14.000,1.000,3.000,5.000,0
"05/10/08","01:11:42",2804.000,"cc",28387.479,6,0.100,2136.000,0.200,577.000,0.300,70.000,0.500,18.000,1.000,3.000,5.000,0
"05/10/08","01:11:48",2291.000,"cc",28321.924,6,0.100,1740.000,0.200,464.000,0.300,75.000,0.500,11.000,1.000,1.000,5.000,0
"05/10/08","01:11:54",2289.000,"cc",28321.973,6,0.100,1765.000,0.200,445.000,0.300,60.000,0.500,18.000,1.000,1.000,5.000,0
"05/10/08","01:12:00",2124.000,"cc",28300.848,6,0.100,1574.000,0.200,458.000,0.300,75.000,0.500,16.000,1.000,1.000,5.000,0
"05/10/08","01:12:06",2224.000,"cc",28292.457,6,0.100,1684.000,0.200,453.000,0.300,69.000,0.500,16.000,1.000,2.000,5.000,0
"05/10/08","01:12:12",2114.000,"cc",28316.576,6,0.100,1589.000,0.200,443.000,0.300,63.000,0.500,17.000,1.000,2.000,5.000,0
"05/10/08","01:12:18",2183.000,"cc",28273.492,6,0.100,1641.000,0.200,470.000,0.300,60.000,0.500,9.000,1.000,3.000,5.000,0
"05/10/08","01:12:24",2193.000,"cc",28316.459,6,0.100,1658.000,0.200,457.000,0.300,62.000,0.500,15.000,1.000,1.000,5.000,0
"05/10/08","01:12:30",2113.000,"cc",28338.315,6,0.100,1610.000,0.200,424.000,0.300,60.000,0.500,18.000,1.000,1.000,5.000,0
"05/10/08","01:12:36",2097.000,"cc",28355.971,6,0.100,1561.000,0.200,459.000,0.300,62.000,0.500,15.000,1.000,0,5.000,0
"05/10/08","01:12:42",2078.000,"cc",28339.412,6,0.100,1592.000,0.200,410.000,0.300,64.000,0.500,12.000,1.000,0,5.000,0
"05/10/08","01:12:48",2082.000,"cc",28367.461,6,0.100,1553.000,0.200,456.000,0.300,57.000,0.500,15.000,1.000,1.000,5.000,0
"05/10/08","01:12:54",2096.000,"cc",28303.506,6,0.100,1584.000,0.200,445.000,0.300,57.000,0.500,9.000,1.000,1.000,5.000,0
"05/10/08","01:13:00",2147.000,"cc",28299.760,6,0.100,1608.000,0.200,449.000,0.300,70.000,0.500,18.000,1.000,2.000,5.000,0
"05/10/08","01:13:06",2194.000,"cc",28295.332,6,0.100,1698.000,0.200,435.000,0.300,49.000,0.500,12.000,1.000,0,5.000,0
"05/10/08","01:13:12",2184.000,"cc",28304.969,6,0.100,1679.000,0.200,428.000,0.300,64.000,0.500,12.000,1.000,1.000,5.000,0
"05/10/08","01:13:18",2184.000,"cc",28312.182,6,0.100,1666.000,0.200,441.000,0.300,64.000,0.500,13.000,1.000,0,5.000,0
"05/10/08","01:13:24",2177.000,"cc",28264.615,6,0.100,1645.000,0.200,448.000,0.300,69.000,0.500,13.000,1.000,2.000,5.000,0
"05/10/08","01:13:30",2364.000,"cc",28294.227,6,0.100,1860.000,0.200,434.000,0.300,55.000,0.500,14.000,1.000,1.000,5.000,0
"05/10/08","01:13:36",2291.000,"cc",28308.936,6,0.100,1774.000,0.200,437.000,0.300,61.000,0.500,18.000,1.000,1.000,5.000,0
"05/10/08","01:13:42",2284.000,"cc",28379.141,6,0.100,1750.000,0.200,459.000,0.300,59.000,0.500,15.000,1.000,1.000,5.000,0
"05/10/08","01:13:48",2345.000,"cc",28374.932,6,0.100,1775.000,0.200,478.000,0.300,74.000,0.500,16.000,1.000,2.000,5.000,0
"05/10/08","01:13:54",2357.000,"cc",28290.164,6,0.100,1791.000,0.200,490.000,0.300,61.000,0.500,15.000,1.000,0,5.000,0
"05/10/08","01:14:00",2547.000,"cc",28312.871,6,0.100,1945.000,0.200,501.000,0.300,76.000,0.500,20.000,1.000,5.000,5.000,0
"05/10/08","01:14:06",2785.000,"cc",28327.363,6,0.100,2131.000,0.200,539.000,0.300,87.000,0.500,27.000,1.000,1.000,5.000,0
"05/10/08","01:14:12",2735.000,"cc",28270.473,6,0.100,2136.000,0.200,514.000,0.300,62.000,0.500,21.000,1.000,2.000,5.000,0
"05/10/08","01:14:18",3335.000,"cc",28285.600,6,0.100,2682.000,0.200,555.000,0.300,77.000,0.500,20.000,1.000,1.000,5.000,0
"05/10/08","01:14:24",3877.000,"cc",28372.002,6,0.100,3111.000,0.200,663.000,0.300,79.000,0.500,24.000,1.000,0,5.000,0
"05/10/08","01:14:30",2817.000,"cc",28317.660,6,0.100,2226.000,0.200,494.000,0.300,80.000,0.500,16.000,1.000,1.000,5.000,0
"05/10/08","01:14:36",2671.000,"cc",28288.875,6,0.100,2112.000,0.200,483.000,0.300,54.000,0.500,21.000,1.000,1.000,5.000,0
"05/10/08","01:14:42",4928.000,"cc",28336.248,6,0.100,4038.000,0.200,792.000,0.300,78.000,0.500,19.000,1.000,1.000,5.000,0
"05/10/08","01:14:48",4758.000,"cc",28402.309,6,0.100,3833.000,0.200,811.000,0.300,87.000,0.500,25.000,1.000,2.000,5.000,0
"05/10/08","01:14:54",4240.000,"cc",28288.617,6,0.100,3392.000,0.200,750.000,0.300,81.000,0.500,15.000,1.000,2.000,5.000,0
"05/10/08","01:15:00",4603.000,"cc",28301.473,6,0.100,3708.000,0.200,771.000,0.300,95.000,0.500,28.000,1.000,1.000,5.000,0
"05/10/08","01:15:06",3106.000,"cc",28279.188,6,0.100,2459.000,0.200,547.000,0.300,85.000,0.500,15.000,1.000,0,5.000,0
"05/10/08","01:15:12",3102.000,"cc",28297.410,6,0.100,2481.000,0.200,535.000,0.300,64.000,0.500,19.000,1.000,3.000,5.000,0
"05/10/08","01:15:18",2898.000,"cc",28321.258,6,0.100,2294.000,0.200,512.000,0.300,68.000,0.500,23.000,1.000,1.000,5.000,0
"05/10/08","01:15:24",3725.000,"cc",28314.252,6,0.100,2969.000,0.200,623.000,0.300,104.000,0.500,28.000,1.000,1.000,5.000,0
"05/10/08","01:15:30",3802.000,"cc",28313.082,6,0.100,2995.000,0.200,688.000,0.300,97.000,0.500,21.000,1.000,1.000,5.000,0
"05/10/08","01:15:36",3154.000,"cc",28310.707,6,0.100,2478.000,0.200,576.000,0.300,75.000,0.500,21.000,1.000,4.000,5.000,0
"05/10/08","01:15:42",3114.000,"cc",28307.225,6,0.100,2445.000,0.200,569.000,0.300,81.000,0.500,18.000,1.000,1.000,5.000,0
"05/10/08","01:15:48",3696.000,"cc",28307.412,6,0.100,2936.000,0.200,654.000,0.300,86.000,0.500,18.000,1.000,2.000,5.000,0
"05/10/08","01:15:54",6131.000,"cc",28350.563,6,0.100,5020.000,0.200,984.000,0.300,101.000,0.500,24.000,1.000,2.000,5.000,0
"05/10/08","01:16:00",4099.000,"cc",28314.268,6,0.100,3321.000,0.200,674.000,0.300,86.000,0.500,17.000,1.000,1.000,5.000,0
"05/10/08","01:16:06",3232.000,"cc",28303.998,6,0.100,2554.000,0.200,589.000,0.300,67.000,0.500,21.000,1.000,1.000,5.000,0
"05/10/08","01:16:12",2824.000,"cc",28317.801,6,0.100,2208.000,0.200,520.000,0.300,72.000,0.500,23.000,1.000,1.000,5.000,0
"05/10/08","01:16:18",2535.000,"cc",28336.754,6,0.100,2000.000,0.200,435.000,0.300,77.000,0.500,20.000,1.000,3.000,5.000,0
"05/10/08","01:16:24",2346.000,"cc",28293.563,6,0.100,1834.000,0.200,417.000,0.300,67.000,0.500,24.000,1.000,4.000,5.000,0
"05/10/08","01:16:30",2380.000,"cc",28326.199,6,0.100,1848.000,0.200,449.000,0.300,66.000,0.500,15.000,1.000,2.000,5.000,0
"05/10/08","01:16:36",2431.000,"cc",28391.338,6,0.100,1896.000,0.200,465.000,0.300,51.000,0.500,18.000,1.000,1.000,5.000,0
"05/10/08","01:16:42",2327.000,"cc",28343.023,6,0.100,1818.000,0.200,432.000,0.300,64.000,0.500,11.000,1.000,2.000,5.000,0
"05/10/08","01:16:48",4119.000,"cc",28340.486,6,0.100,3318.000,0.200,693.000,0.300,88.000,0.500,18.000,1.000,2.000,5.000,0
"05/10/08","01:16:54",3863.000,"cc",28317.107,6,0.100,3103.000,0.200,662.000,0.300,76.000,0.500,21.000,1.000,1.000,5.000,0
"05/10/08","01:17:00",3644.000,"cc",28275.006,6,0.100,2942.000,0.200,603.000,0.300,76.000,0.500,22.000,1.000,1.000,5.000,0
"05/10/08","01:17:06",3104.000,"cc",28293.756,6,0.100,2450.000,0.200,566.000,0.300,72.000,0.500,15.000,1.000,1.000,5.000,0
"05/10/08","01:17:12",2510.000,"cc",28342.162,6,0.100,1947.000,0.200,475.000,0.300,67.000,0.500,21.000,1.000,0,5.000,0
"05/10/08","01:17:18",3123.000,"cc",28326.508,6,0.100,2472.000,0.200,549.000,0.300,87.000,0.500,11.000,1.000,4.000,5.000,0
"05/10/08","01:17:24",3325.000,"cc",28312.731,6,0.100,2626.000,0.200,583.000,0.300,89.000,0.500,25.000,1.000,2.000,5.000,0
"05/10/08","01:17:30",3761.000,"cc",28358.779,6,0.100,3002.000,0.200,645.000,0.300,79.000,0.500,35.000,1.000,0,5.000,0
"05/10/08","01:17:36",3162.000,"cc",28255.398,6,0.100,2507.000,0.200,567.000,0.300,67.000,0.500,21.000,1.000,0,5.000,0
"05/10/08","01:17:42",3279.000,"cc",28269.447,6,0.100,2638.000,0.200,553.000,0.300,73.000,0.500,12.000,1.000,3.000,5.000,0
"05/10/08","01:17:48",2466.000,"cc",28274.783,6,0.100,1952.000,0.200,448.000,0.300,49.000,0.500,15.000,1.000,2.000,5.000,0
"05/10/08","01:17:54",2551.000,"cc",28288.100,6,0.100,2030.000,0.200,440.000,0.300,65.000,0.500,14.000,1.000,2.000,5.000,0
"05/10/08","01:18:00",2606.000,"cc",28349.947,6,0.100,2044.000,0.200,476.000,0.300,65.000,0.500,18.000,1.000,3.000,5.000,0
"05/10/08","01:18:06",2688.000,"cc",28364.023,6,0.100,2100.000,0.200,492.000,0.300,81.000,0.500,13.000,1.000,2.000,5.000,0
"05/10/08","01:18:12",2658.000,"cc",28355.395,6,0.100,2114.000,0.200,466.000,0.300,64.000,0.500,14.000,1.000,0,5.000,0
"05/10/08","01:18:18",2106.000,"cc",28349.244,6,0.100,1609.000,0.200,410.000,0.300,66.000,0.500,19.000,1.000,2.000,5.000,0